Погода в Корноухово

Россия / Республика Татарстан     55°32′59″N   49°53′39″E
темп.,
°C
ветер,
м/с
пор.,
м/с
влажн.,
%
обл.,
%
осадки,
мм/ч
давл.,
гПа
погр.,
м
4 июля, пн
пн400:00+13с7128689 0.0 1011366
03:00+12с712850 0.0 1011402
06:00+12с613790 0.0 1011447
09:00+14с71173100 0.0 1011652
12:00+15ссв71076100 0.0 1012842
15:00+18св58679 0.0 10121128
18:00+17ссв69734 0.9 1013775
21:00+13ссв35864 0.9 101492
5 июля, вт
вт500:00+11св34845 0.1 101591
03:00+9ссв4784100 0.1 1016131
06:00+12ссв4874100 0.0 1017273
09:00+16св4557100 0.0 1018738
12:00+19с455365 0.0 10171599
15:00+20с4552100 0.0 10171460
18:00+20с236699 0.0 101679
21:00+15сз22725 0.0 101726
6 июля, ср
ср600:00+14ссз23740 0.0 101738
03:00+13сз34800 0.0 101868
06:00+16ссз23734 0.0 1017142
09:00+20зсз346154 0.0 1017556
12:00+23зсз34552 0.0 10171247
15:00+24з34530 0.0 10161461
18:00+22зюз46710 0.0 1016164
21:00+18з33770 0.0 101637
7 июля, чт
чт700:00+16з22780 0.0 101616
03:00+16зсз22791 0.0 101616
06:00+18з23765 0.0 1017126
09:00+20юз347698 0.0 1017203
12:00+21юз347563 0.0 1018233
15:00+24юз34635 0.0 1017466
18:00+23ююз367134 0.2 1017165
21:00+20юз347720 0.2 101745
8 июля, пт
пт800:00+18юз33885 0.0 101735
03:00+18юз3491100 0.1 101784
06:00+20юз348619 0.0 1017173
09:00+22зюз348089 0.0 1017382
12:00+25зюз347029 0.1 1016850
15:00+25зюз126999 5.5 1016356
18:00+24ю228099 4.5 101634
21:00+20ю2288100 5.1 101616